Wind_Speed
1 2 3 3 4 4 4 3 2 3 3 4 2 1 2 3 4 4 2 1 1 3 4 6 7 7 3 5 9 10 10 10 10 10 9 9 9 8 11 10 10 10 7 7 8 9 9 10 13 12 11 14 17 18 20 21 18 15 16 15 14 15 15 16 17 16 13 12 13 14 14 15 14 11 10 10 9 8 7 7 6 6 6 5 5 5
1 4 4 5 5 3 3 4 4 4 2 2 2 2 2 3 4 3 1 2 1 4 1 1 6 4 1 2 7 9 10 9 10 11 9 9 9 9 11 11 10 8 4 6 6 8 9 10 12 12 12 14 15 16 18 20 19 16 15 14 14 17 17 17 18 16 14 15 16 16 16 17 16 13 11 11 10 9 8 7 6 5 5 5 5 5
2 5 6 5 3 4 4 4 4 3 2 2 1 2 2 2 3 2 1 2 1 3 1 1 4 1 3 1 4 5 7 7 8 10 9 8 10 10 10 10 10 9 7 6 6 7 9 10 11 11 13 15 14 14 16 17 18 16 13 13 15 18 19 19 18 16 16 17 16 15 16 17 16 14 11 11 10 9 7 6 5 4 4 4 4 4
3 4 4 4 6 6 4 3 4 3 2 2 1 2 2 0 1 1 1 2 2 1 1 3 3 2 3 4 4 1 2 3 3 8 8 7 9 10 10 9 10 11 10 9 7 7 8 10 12 12 12 15 14 14 14 14 16 16 14 15 17 20 20 20 19 17 17 17 16 15 16 15 14 14 12 10 9 8 6 4 4 4 4 4 4 4
4 1 2 6 6 5 4 3 5 3 2 2 3 4 3 1 2 2 1 1 1 1 2 3 3 2 2 4 5 2 2 2 2 6 8 8 8 9 10 10 11 11 10 10 9 8 9 10 11 11 11 13 13 13 13 12 14 14 13 15 17 19 21 20 18 17 18 19 18 18 17 15 13 13 12 10 9 8 6 5 5 5 5 4 3 3
5 1 4 5 3 4 4 3 5 5 3 2 5 8 7 4 3 3 2 1 2 2 3 1 2 3 2 2 5 4 4 4 2 6 9 9 10 10 11 11 11 11 11 11 11 8 9 10 10 10 10 9 8 7 8 9 9 9 7 8 7 9 17 19 17 18 20 20 21 21 18 15 13 12 10 10 10 9 7 6 7 6 6 5 4 3
2 3 3 3 3 4 4 3 5 6 4 2 3 8 8 4 2 2 1 1 1 2 2 2 1 2 3 3 3 2 6 7 4 7 9 10 11 12 12 11 11 12 11 11 11 9 9 11 11 9 8 7 7 7 9 11 11 11 11 12 8 7 13 16 18 20 21 21 21 19 16 14 13 12 11 10 10 9 8 8 8 7 7 6 4 3
3 4 2 2 3 4 4 3 6 8 5 1 1 5 7 5 4 4 1 1 0 0 1 1 1 2 3 3 2 2 6 8 7 8 8 9 11 12 12 12 12 13 12 11 12 11 10 11 11 7 7 9 11 12 13 13 13 14 17 18 16 16 17 14 16 20 21 21 19 16 14 13 12 12 11 11 10 9 9 9 8 8 6 4 3 4
3 4 4 4 2 2 4 3 7 11 5 0 2 4 5 4 3 3 1 1 1 1 3 1 3 1 2 2 2 4 5 7 8 7 8 9 11 13 12 13 13 13 12 12 12 11 9 9 9 8 10 12 14 16 15 15 15 17 18 18 21 23 21 16 17 21 21 20 18 15 14 14 13 11 11 11 10 10 9 8 8 7 5 4 4 4
1 3 4 5 2 3 2 0 6 9 3 2 5 6 5 4 4 2 1 2 1 2 4 1 4 1 3 1 1 2 2 2 3 3 5 6 9 11 11 11 11 10 10 10 10 10 7 8 9 11 13 13 14 16 18 17 18 17 16 18 22 23 21 19 20 21 20 19 17 14 14 15 14 13 13 12 12 11 10 8 7 6 6 6 6 6
1 1 1 3 2 1 3 4 1 2 3 5 5 6 5 3 2 2 2 1 2 3 2 2 5 2 3 1 1 0 1 2 3 3 2 2 4 8 9 9 9 8 8 8 7 5 7 10 11 13 14 13 14 17 18 17 18 17 18 21 24 23 21 21 21 21 20 19 17 14 13 14 14 14 15 15 14 13 10 8 7 7 7 7 7 7
2 1 1 2 1 3 5 5 2 2 3 3 2 3 4 1 1 1 1 0 4 3 1 2 3 2 3 2 0 2 2 3 4 6 5 4 4 6 7 7 7 6 6 5 5 5 9 11 13 15 11 9 12 14 16 19 21 20 21 23 23 21 21 23 23 22 20 19 17 15 13 12 12 12 14 15 15 14 11 10 9 8 7 7 8 8
2 3 2 2 1 3 4 4 3 1 1 1 2 3 3 2 1 2 1 1 3 1 1 2 1 1 1 1 2 4 5 5 4 6 9 9 7 6 5 6 6 6 6 6 6 6 9 11 15 16 12 12 13 13 15 19 16 14 15 19 21 20 20 23 23 22 20 19 18 16 13 12 11 10 11 13 14 14 12 11 10 9 8 8 8 8
2 2 1 1 2 3 5 5 3 3 3 4 4 4 4 3 2 3 1 1 2 1 1 1 1 1 1 1 3 5 6 7 6 6 6 7 7 5 3 5 6 6 6 6 6 7 9 13 16 15 15 15 15 12 9 7 12 14 13 15 18 17 16 18 20 20 20 20 19 16 14 12 11 10 10 12 13 13 13 11 10 10 9 8 7 7
3 2 2 3 1 2 6 5 2 4 4 3 1 2 4 4 3 3 3 3 3 1 2 1 2 2 2 1 3 6 6 6 5 5 4 2 0 2 5 7 7 7 6 6 8 9 10 14 17 16 14 13 11 8 10 13 17 17 18 15 12 13 14 17 20 21 21 20 19 17 16 14 12 11 10 11 12 12 13 12 11 10 9 8 7 6
1 3 2 1 1 2 4 2 3 4 4 1 0 1 2 3 3 1 0 1 1 1 1 1 1 1 0 0 2 4 3 3 4 4 4 4 6 7 8 9 9 8 8 8 9 9 10 13 15 15 14 13 9 11 17 16 15 19 21 18 15 18 20 20 21 21 21 21 20 18 18 17 14 12 12 12 12 11 12 12 11 10 9 7 7 6
1 2 1 1 0 0 2 2 2 0 2 3 2 3 1 0 3 3 2 2 1 2 2 1 1 0 1 2 2 3 2 2 3 4 5 5 6 8 8 8 9 9 9 9 8 8 8 9 12 14 16 17 17 20 18 10 15 20 19 20 22 23 24 21 21 21 21 21 20 20 19 18 16 14 13 12 12 12 12 11 11 10 9 7 6 6
2 1 1 1 2 2 2 2 5 3 1 3 3 5 3 2 3 2 2 2 0 3 2 1 0 1 3 3 3 3 3 4 4 5 5 4 4 5 5 5 6 7 7 8 8 8 8 7 10 12 14 12 20 21 12 9 18 20 17 20 24 25 24 22 22 21 21 22 21 20 20 19 18 16 14 13 14 14 13 12 11 11 9 8 7 6
2 2 1 1 1 2 3 1 5 3 3 1 2 5 3 2 2 1 2 2 3 3 1 1 1 2 3 1 1 3 2 3 4 5 4 3 2 2 3 5 7 6 5 6 5 6 6 4 5 7 7 5 17 17 14 15 19 19 18 23 24 23 22 22 22 22 22 21 21 20 20 19 19 17 15 15 15 16 15 12 12 12 11 9 7 6
1 2 1 0 1 1 1 1 3 3 4 3 3 3 1 1 2 2 1 2 4 3 2 2 2 3 3 0 2 0 0 1 2 3 3 2 2 2 2 3 5 5 4 4 3 3 3 1 2 5 7 6 14 15 15 18 21 22 25 29 24 19 21 22 22 21 20 20 19 19 19 20 20 18 17 17 17 17 16 13 11 11 10 9 8 7
2 1 2 0 1 2 1 0 2 3 3 3 4 3 1 1 1 1 1 1 1 3 3 3 3 2 2 2 3 4 4 3 1 2 3 2 1 2 2 3 3 3 3 4 4 4 4 2 1 3 4 9 16 16 15 18 23 26 30 32 25 18 19 20 18 17 16 16 17 18 19 20 20 19 18 18 18 17 16 13 11 11 10 9 8 7
1 2 2 0 0 2 1 3 2 2 1 2 3 3 3 3 3 3 3 1 0 1 2 3 4 2 3 2 4 6 6 5 2 3 5 3 2 3 4 4 4 3 4 5 5 4 3 3 4 6 7 11 15 16 15 18 24 28 29 31 27 20 17 18 15 12 12 13 14 16 18 19 19 19 19 19 19 18 16 13 11 11 10 10 9 8
1 2 2 1 1 0 1 1 0 1 2 2 1 1 2 2 2 3 4 3 2 1 1 1 2 2 3 4 4 4 5 4 1 4 7 5 4 6 6 6 6 5 5 5 4 4 4 6 8 9 10 11 12 13 13 15 19 23 26 28 28 22 17 18 15 11 11 12 12 14 16 18 18 19 19 20 20 19 17 14 12 13 12 11 10 8
1 1 2 2 1 1 1 1 1 0 2 2 3 3 1 0 1 1 1 2 3 3 2 2 3 2 3 5 5 4 4 3 3 5 7 6 6 8 8 7 6 5 5 5 5 6 7 9 11 10 10 10 10 10 10 10 11 13 16 19 21 20 18 18 15 10 10 13 13 14 15 16 16 16 17 19 19 19 18 16 14 14 13 12 11 9
1 0 1 2 2 1 2 3 2 0 1 2 2 2 1 2 4 3 2 2 3 2 2 3 3 3 3 4 6 7 7 7 6 6 7 7 7 8 8 7 6 5 6 7 8 8 9 10 11 11 11 10 8 8 8 8 9 10 10 11 14 18 17 16 15 11 9 12 15 15 14 14 14 13 14 16 17 18 19 18 16 15 14 12 11 10
2 0 0 2 4 4 3 2 1 1 1 1 2 3 3 1 2 3 3 2 4 3 2 2 2 4 3 4 8 9 8 7 7 7 7 7 7 7 7 7 6 7 8 9 9 9 9 9 11 12 12 10 8 6 7 7 8 9 10 10 11 13 14 13 13 11 9 10 13 15 16 15 14 12 12 12 15 17 19 19 17 15 14 11 9 9
3 2 2 3 4 2 1 1 3 1 1 2 3 4 5 4 3 0 3 3 3 4 3 1 1 5 3 5 8 8 8 6 6 6 7 7 6 7 7 7 8 8 8 9 9 9 10 10 11 13 13 11 9 7 7 6 6 6 7 9 9 8 8 8 8 9 9 10 11 13 14 15 14 13 12 12 14 17 18 19 18 16 13 10 9 10
4 2 2 5 8 5 2 1 3 3 4 4 3 3 4 5 4 1 2 2 2 4 4 2 2 5 3 6 7 6 7 5 5 6 6 6 6 6 7 8 10 10 10 10 10 10 11 11 10 12 13 13 12 11 9 7 5 4 4 6 7 6 6 6 6 7 9 10 10 10 11 12 12 12 12 12 14 16 18 19 19 16 13 12 13 13
5 2 2 3 7 6 5 4 5 6 5 5 6 5 5 6 6 4 4 3 1 1 2 4 5 4 3 4 5 6 5 4 5 5 5 6 6 7 9 11 12 12 12 12 12 11 11 10 10 11 13 13 14 14 12 9 6 4 4 4 4 4 4 5 6 7 8 9 8 8 8 8 9 10 11 12 14 16 18 20 20 17 14 14 14 14
4 1 1 2 5 4 5 5 7 8 5 5 8 7 5 6 8 7 5 4 3 5 4 7 9 7 4 4 4 5 3 2 4 5 7 8 8 9 12 12 13 13 13 13 12 11 11 11 12 13 14 15 15 15 15 14 11 7 5 4 3 1 2 3 4 5 6 7 7 7 7 8 9 11 11 12 13 15 17 19 19 16 14 14 13 11
2 2 3 2 3 2 5 4 5 8 7 5 5 5 5 5 6 5 4 3 5 6 5 6 9 7 4 4 4 4 3 4 7 9 10 9 9 11 13 13 13 13 13 13 12 12 12 12 14 16 16 16 16 17 19 19 17 14 10 6 3 2 1 1 2 4 6 7 7 7 8 9 11 12 12 13 13 14 16 18 17 14 13 13 11 10
2 3 2 2 3 1 4 3 4 7 7 3 2 3 4 4 2 3 3 2 2 3 6 5 5 5 3 3 5 6 7 10 11 11 10 9 10 13 14 13 13 13 12 12 12 12 12 12 14 15 15 16 16 18 19 20 21 21 18 12 6 3 2 1 1 3 5 5 6 6 7 9 9 10 11 12 13 14 15 15 14 12 12 13 11 11
2 4 4 2 4 2 2 2 3 5 3 1 1 1 2 2 3 2 3 4 4 1 3 3 4 5 3 3 6 9 11 11 11 9 8 9 11 13 13 12 12 11 11 10 10 11 11 11 12 13 13 13 14 15 17 19 21 23 22 19 13 8 5 3 2 1 2 4 5 5 6 6 7 7 8 9 11 13 14 14 13 13 13 13 11 10
2 4 3 2 3 2 3 4 4 3 3 1 3 2 3 0 4 4 4 5 4 2 3 5 7 7 5 5 8 10 10 10 9 8 8 8 9 10 12 11 11 10 10 10 10 9 9 10 12 13 14 15 15 15 16 18 19 20 21 21 19 16 14 13 12 11 8 4 1 1 2 1 2 2 3 4 7 10 12 12 12 12 12 11 10 9
3 3 2 1 2 3 4 5 5 3 2 2 5 2 1 3 7 10 9 8 6 5 8 10 10 9 8 8 8 10 11 10 10 10 10 9 8 9 10 11 11 10 10 10 10 10 10 11 12 14 16 18 18 17 17 16 16 17 16 17 17 16 16 16 16 16 14 12 9 6 4 2 0 1 1 2 4 6 9 10 9 9 9 9 9 10
3 3 2 2 2 3 4 4 3 1 1 2 2 2 3 3 4 6 8 8 7 5 5 10 11 9 9 9 8 8 8 8 10 10 10 9 9 8 9 9 10 9 9 9 9 9 11 12 12 13 15 17 17 17 17 15 14 13 13 13 14 13 12 12 13 13 12 11 10 8 6 4 1 0 2 3 3 5 7 8 8 10 11 12 12 13
2 3 2 2 1 2 3 2 0 1 1 2 3 1 1 1 0 0 3 5 4 4 2 8 10 8 7 6 5 3 2 4 8 8 8 9 9 8 9 9 8 8 8 8 8 9 11 13 13 13 15 16 17 17 17 15 13 12 12 12 11 11 10 10 10 10 10 10 9 8 6 4 2 2 2 2 3 5 7 9 10 12 13 15 16 16
3 2 2 2 1 1 2 2 1 1 2 3 4 2 0 0 2 2 1 3 3 3 2 3 6 5 4 3 3 2 2 2 6 5 6 8 8 8 9 9 9 9 9 9 10 10 11 13 13 13 14 14 16 17 17 16 14 13 13 12 10 9 8 8 7 6 6 7 7 7 6 5 3 3 3 3 4 5 7 10 11 12 13 14 15 15
7 4 2 3 2 1 2 2 2 2 0 1 2 2 3 1 2 3 2 3 3 2 2 2 4 3 2 2 2 2 2 2 5 4 4 6 7 7 8 9 11 12 11 12 12 12 14 14 13 13 13 13 14 15 15 14 14 13 13 12 11 9 9 8 7 6 6 6 4 3 3 3 3 3 4 5 6 6 8 9 11 11 12 13 14 14
6 4 1 3 3 2 3 1 1 2 0 2 2 4 4 1 3 4 4 3 3 1 1 2 4 3 2 1 1 1 1 2 4 4 4 5 5 7 8 8 10 11 12 13 15 15 16 16 15 14 14 14 14 14 14 14 13 12 13 12 10 9 9 9 8 8 8 8 8 9 8 6 3 1 2 4 7 9 11 12 12 13 14 14 14 14
3 3 1 2 2 2 2 2 0 0 0 1 4 5 3 1 4 4 2 2 3 3 2 4 5 5 5 4 3 3 4 4 4 4 4 5 5 7 8 8 9 10 11 12 14 16 16 16 15 14 13 13 13 13 14 14 12 11 12 11 9 9 9 9 8 9 9 9 9 9 10 11 9 7 6 5 6 8 11 14 15 15 16 16 15 14
2 2 2 1 2 1 1 2 1 1 1 2 4 4 2 2 3 2 2 2 3 5 4 5 6 6 6 7 6 4 4 4 4 4 5 5 5 6 8 9 9 10 11 12 14 15 15 15 15 15 13 12 11 12 13 13 11 9 10 10 8 9 10 9 9 9 9 9 9 9 9 10 10 10 11 10 9 9 9 11 13 14 15 15 15 14
3 2 1 1 1 1 2 2 1 2 2 4 4 2 1 1 2 4 4 3 3 5 5 4 5 5 4 6 5 4 4 4 4 5 4 4 5 5 6 8 8 9 10 11 12 14 14 13 13 15 16 15 13 12 13 13 11 10 10 9 9 10 11 10 10 10 9 9 9 9 8 8 8 9 10 11 12 12 11 11 12 13 14 14 15 15
3 2 1 1 1 1 1 2 1 0 3 4 2 1 4 4 3 4 4 4 3 3 3 4 4 4 3 4 4 3 3 3 4 4 4 4 5 6 7 8 9 9 10 11 12 13 13 12 13 14 16 16 15 14 13 13 13 12 11 10 10 11 11 11 11 11 11 11 10 10 9 8 8 8 8 8 10 12 14 14 14 14 15 16 17 18
3 2 1 2 2 2 3 3 2 1 3 4 4 5 6 6 4 3 4 4 3 2 2 3 3 3 3 3 3 3 3 3 4 4 4 5 5 6 7 8 9 10 10 11 12 12 12 12 13 14 15 15 16 15 15 14 14 12 11 10 11 11 11 12 13 12 12 12 12 12 11 11 10 9 9 8 7 7 9 13 15 17 20 21 22 22
2 1 1 2 4 4 5 5 2 1 2 4 5 5 5 5 3 3 3 3 2 1 2 2 3 3 3 3 3 3 3 3 4 4 4 4 5 6 8 8 8 9 9 10 11 12 13 12 12 13 13 14 15 15 15 15 14 12 11 11 12 12 12 13 13 13 13 13 13 14 14 14 13 12 12 11 9 8 7 8 10 13 17 21 22 22
1 0 1 3 3 2 3 3 2 2 2 2 3 3 3 3 2 2 2 2 2 3 3 3 3 3 3 3 3 3 2 3 3 4 4 4 6 7 9 9 9 10 10 10 10 11 12 12 12 12 13 14 13 13 15 15 14 13 12 12 13 13 13 13 13 13 13 13 14 15 15 14 15 16 15 15 14 12 10 10 9 9 11 15 18 19
1 0 2 3 1 1 3 4 2 1 1 0 1 2 2 3 3 3 3 4 4 4 5 4 4 3 3 4 3 3 3 3 3 4 4 4 5 7 8 9 10 10 10 10 11 12 12 12 12 13 14 14 14 13 14 15 16 16 16 15 15 15 15 15 15 14 14 15 15 16 15 15 15 16 16 16 17 16 14 13 11 10 10 12 15 18
1 0 1 2 3 3 3 3 2 2 2 2 1 1 1 2 4 5 5 5 5 5 5 5 4 4 3 4 4 4 5 5 5 6 6 6 6 8 9 10 10 12 13 13 14 14 13 13 14 14 15 15 15 14 15 15 16 17 19 19 18 18 18 18 18 18 17 16 16 17 17 17 16 15 15 16 18 19 19 17 14 13 13 12 13 16
1 2 2 3 4 3 2 5 6 3 2 3 4 3 2 2 4 5 5 5 4 4 3 3 3 2 3 4 4 5 6 6 7 8 8 8 9 11 12 13 14 15 16 16 16 15 14 14 14 15 16 15 14 15 16 16 16 17 19 21 21 22 22 20 19 19 18 17 17 18 18 18 17 16 15 16 16 17 19 20 19 17 16 14 13 14
0 2 2 2 3 1 2 6 6 1 2 2 4 4 3 3 4 5 5 4 4 4 2 2 1 1 2 3 4 4 5 6 8 9 10 10 12 14 14 15 16 17 17 16 16 15 15 15 15 15 15 15 14 15 16 18 19 19 20 22 23 24 24 21 19 19 19 18 18 20 20 20 19 17 15 16 15 15 15 18 20 21 20 18 15 14
Wind_Direction
194 180 184 199 197 199 198 191 156 114 114 131 137 195 228 248 259 255 248 313 233 229 233 210 223 232 186 156 173 172 175 185 186 184 185 181 179 188 200 204 205 208 196 160 168 186 195 204 202 197 197 192 188 189 190 192 196 193 190 181 174 179 183 188 186 182 176 164 162 163 159 152 145 140 135 130 123 114 108 103 96 89 91 92 94 94
219 198 210 218 203 185 167 147 127 122 114 136 182 241 254 226 253 269 202 3 301 222 230 187 218 220 64 159 175 176 180 189 197 194 191 183 185 201 206 208 210 205 170 138 159 181 191 201 203 201 200 198 196 196 195 198 200 197 192 183 177 182 188 192 188 183 178 174 172 168 161 153 145 141 138 130 123 116 110 102 92 79 75 84 95 91
214 217 227 212 154 100 103 133 143 137 130 138 173 244 249 211 259 277 199 12 31 215 250 154 192 140 40 111 163 184 188 188 204 203 199 186 190 209 210 210 214 207 192 177 168 176 192 197 197 198 201 201 197 196 199 201 201 198 190 183 182 185 189 192 190 186 182 178 175 167 158 152 145 143 140 133 127 120 114 107 91 75 71 75 87 89
198 243 238 166 143 128 113 132 143 131 156 183 182 217 232 162 254 215 111 15 28 270 270 138 145 65 54 110 121 120 155 133 183 198 199 194 198 213 215 214 216 213 211 205 187 180 194 197 196 198 200 201 195 191 197 199 198 196 192 191 189 188 190 190 187 186 184 177 171 162 154 149 143 141 141 134 129 125 120 114 94 89 92 76 78 86
218 286 100 128 147 157 137 141 165 174 196 217 213 216 237 217 227 250 1 324 234 62 55 114 128 86 71 127 140 121 96 96 125 180 190 197 208 218 219 220 220 218 216 213 206 193 195 200 199 198 197 198 192 188 194 195 195 194 193 196 192 190 191 188 183 186 185 175 164 155 148 144 137 136 142 139 135 136 131 121 107 102 98 81 77 81
241 176 132 132 138 163 155 169 195 194 190 233 216 212 226 216 209 264 306 265 188 117 53 19 169 137 70 119 151 147 165 173 169 195 198 198 209 220 224 224 222 220 221 220 216 198 195 203 202 197 193 189 175 167 173 171 175 172 172 188 183 182 188 185 187 191 186 174 163 154 148 145 141 139 146 148 146 145 136 123 115 109 99 84 81 80
231 130 150 153 144 168 184 216 210 189 180 230 211 200 209 205 173 227 246 214 197 126 65 325 234 149 105 112 131 156 183 179 179 201 204 203 210 218 224 225 221 220 220 222 221 206 194 200 202 194 178 163 137 122 132 143 157 165 177 190 187 196 199 192 195 194 183 173 166 159 153 150 150 148 151 155 150 144 136 125 120 115 104 89 85 92
155 129 123 130 128 158 192 228 200 181 182 202 164 165 174 179 184 191 179 118 301 22 134 351 320 160 129 123 147 186 182 184 195 202 202 205 211 218 224 223 221 220 215 216 220 212 199 196 197 177 147 148 137 130 140 149 167 184 191 192 185 194 207 201 194 191 183 177 172 164 154 149 150 150 152 154 147 141 136 129 126 121 107 95 97 106
144 173 176 154 131 180 206 222 177 176 190 294 119 130 141 153 163 163 146 110 48 252 188 42 352 184 147 110 159 165 167 184 196 202 207 208 210 215 222 220 217 218 214 214 216 212 201 185 177 156 146 148 140 143 161 176 189 192 191 190 183 185 196 197 192 191 189 186 179 167 155 149 150 150 150 153 148 142 139 132 130 123 106 104 111 109
134 212 182 162 181 220 219 157 171 178 188 148 132 103 93 90 82 86 129 123 98 227 198 7 348 223 174 62 58 125 121 164 189 200 211 219 220 217 219 220 213 209 210 212 215 211 185 148 150 153 148 143 144 163 182 189 190 185 182 190 186 181 188 194 193 194 194 192 184 171 159 152 153 155 154 153 150 145 143 139 134 124 113 111 113 107
353 344 142 185 215 184 111 78 131 166 115 150 143 101 94 73 56 66 42 80 171 203 186 354 342 304 196 172 356 187 66 338 307 288 226 222 250 234 227 225 214 204 205 205 204 184 127 129 142 139 135 140 159 178 184 180 179 181 186 189 182 177 183 190 193 197 198 195 189 177 164 158 157 160 159 156 155 152 149 147 142 131 121 118 117 112
329 259 207 233 189 126 108 90 52 33 108 152 143 118 131 70 37 103 38 157 197 184 105 3 339 292 216 181 238 281 317 314 293 291 291 298 284 254 236 225 211 199 193 187 183 140 112 121 117 106 114 152 176 179 176 180 187 191 189 181 170 169 179 186 193 200 199 197 194 184 172 165 162 164 166 164 162 158 154 154 148 137 132 130 124 117
266 226 268 317 191 166 140 107 94 80 114 150 126 140 164 150 159 200 204 205 217 197 72 358 321 225 240 275 303 304 321 325 302 289 292 293 281 266 242 217 197 184 175 166 161 130 116 121 117 121 150 180 188 184 181 186 184 171 168 168 168 174 181 185 192 198 198 198 197 191 181 173 169 170 172 170 165 158 154 154 148 138 139 141 133 125
233 238 297 250 209 190 179 163 155 170 189 185 159 162 177 152 153 192 177 203 247 227 72 353 270 189 203 300 295 302 321 330 322 307 301 293 281 273 228 176 157 153 152 142 127 108 108 121 131 150 175 187 191 183 170 138 102 114 151 174 180 185 186 188 195 199 200 201 199 196 190 183 178 176 176 173 164 156 151 149 140 130 135 146 142 133
210 233 200 191 179 165 189 194 152 139 157 178 154 160 179 167 175 203 197 198 208 161 90 154 205 182 149 96 326 311 320 333 336 342 348 347 47 120 119 121 121 123 118 107 103 99 107 124 138 158 178 193 196 157 108 91 101 138 177 187 188 202 203 201 204 203 203 203 200 198 196 191 185 180 179 173 163 156 150 144 134 125 128 141 145 140
212 255 254 273 319 176 196 188 98 116 134 125 46 149 183 184 154 138 133 167 179 145 130 179 217 291 201 286 306 298 318 352 13 35 52 78 103 111 110 112 116 116 113 110 110 108 113 125 137 154 172 183 172 115 98 109 145 174 188 190 203 225 222 212 208 205 203 204 202 201 199 195 189 183 178 172 164 161 153 141 134 129 127 131 135 138
142 260 304 345 72 121 250 164 102 189 163 132 172 178 179 89 114 117 113 52 11 207 180 144 194 208 199 197 195 190 162 97 75 72 79 85 104 115 116 123 129 128 130 128 122 118 120 133 142 156 180 177 146 121 110 136 194 197 197 198 205 219 221 212 210 207 204 205 205 205 204 199 195 188 181 176 170 165 158 147 140 137 134 129 127 133
193 223 341 6 114 50 315 140 84 26 122 146 180 164 138 78 81 111 150 94 132 209 183 94 155 182 189 177 155 166 160 124 91 68 77 80 91 111 105 102 108 111 121 119 115 122 133 158 156 162 195 174 125 125 142 203 215 201 200 211 210 212 214 211 211 209 206 208 209 210 208 205 203 196 183 180 177 168 162 155 150 149 146 135 127 132
203 223 328 302 166 44 341 148 110 62 26 38 148 134 135 190 160 148 162 152 183 201 170 140 197 232 209 187 113 161 160 114 84 58 72 83 58 70 70 75 88 89 95 102 112 130 139 165 138 145 214 156 109 126 165 197 208 200 202 218 218 215 217 217 215 212 210 211 211 213 210 206 208 203 188 182 179 173 167 163 158 156 151 141 133 136
140 235 227 150 291 350 1 238 174 134 62 61 116 113 27 291 168 167 153 166 189 191 164 156 195 227 205 17 1 224 2 85 114 76 69 76 33 13 43 81 102 107 111 113 111 104 91 42 102 153 203 158 119 127 149 173 192 195 200 210 213 211 216 219 217 213 212 210 209 211 207 205 208 206 195 187 184 180 174 169 164 158 152 147 139 134
94 215 215 89 319 221 171 354 234 178 119 125 150 153 136 79 90 176 104 43 193 177 164 171 195 200 122 33 314 299 313 314 215 128 96 79 47 45 73 100 112 114 105 94 85 73 66 37 74 143 152 124 121 130 143 162 177 185 197 208 208 201 208 217 216 212 212 207 205 207 206 204 206 205 200 195 192 187 180 175 168 161 158 155 146 138
123 174 195 176 139 186 62 13 297 241 200 174 174 174 153 127 141 169 166 155 353 167 168 182 194 162 73 17 310 298 300 303 272 149 117 105 107 91 83 86 83 76 76 84 92 90 97 106 84 74 82 99 118 135 150 160 169 180 195 208 210 204 207 220 220 210 208 205 202 206 207 205 204 204 203 201 199 193 185 184 180 174 174 171 161 156
128 122 121 84 83 49 6 22 303 221 144 115 84 110 140 137 146 177 190 176 136 140 147 169 201 147 53 4 336 319 308 307 252 142 120 115 119 102 92 88 84 82 80 85 97 95 92 88 76 70 75 90 110 128 144 154 165 180 192 205 213 213 216 228 230 213 202 201 198 199 203 204 203 204 203 204 204 199 193 196 194 188 189 188 182 179
117 79 82 86 41 341 312 186 229 238 136 98 53 52 118 177 95 134 177 150 150 161 147 171 202 140 57 9 4 9 14 48 86 108 110 112 109 101 99 96 89 82 75 72 72 68 66 66 65 64 66 76 96 111 125 140 156 178 192 203 213 218 221 230 237 226 201 199 199 193 193 195 197 202 204 206 207 203 201 203 200 194 195 198 200 200
83 33 84 107 124 134 168 187 200 170 86 79 57 11 336 92 104 118 102 114 172 181 164 196 195 128 79 25 27 28 37 62 71 77 90 97 100 100 98 93 84 76 69 64 62 59 59 61 60 60 60 64 85 108 127 143 156 173 186 197 208 215 221 231 243 241 209 198 203 201 198 195 195 201 206 210 211 207 205 205 203 201 203 205 208 211
88 46 309 145 169 181 175 181 192 150 115 90 66 11 4 53 123 138 131 171 192 170 168 213 175 123 104 28 26 23 26 45 53 59 72 76 82 88 87 83 77 69 61 57 57 57 54 53 55 58 60 63 74 100 126 143 160 173 182 191 200 209 217 228 243 247 224 201 203 208 211 211 210 210 211 216 218 213 210 209 206 207 210 211 209 208
105 66 15 81 111 135 127 341 324 316 108 88 62 28 10 336 313 74 133 180 176 150 166 230 130 140 129 13 11 13 17 28 34 43 62 66 65 71 74 72 67 63 61 56 54 52 48 45 45 46 49 54 58 72 95 112 135 160 175 183 187 194 205 214 228 240 236 222 212 213 217 220 223 224 222 224 223 217 214 213 210 210 211 208 206 205
95 69 11 69 77 67 59 21 2 37 66 58 37 13 4 344 325 1 115 127 135 152 177 187 135 144 109 9 360 2 5 15 29 33 50 57 55 65 68 66 64 59 57 53 48 47 47 44 39 37 39 42 46 52 65 81 100 123 149 163 169 176 191 200 205 220 231 231 227 226 228 231 232 230 229 226 221 216 214 212 212 213 215 216 218 218
105 75 329 75 88 73 41 24 41 64 79 67 42 17 5 12 19 44 45 5 313 186 157 134 125 111 61 7 357 1 359 10 30 33 51 59 60 70 68 63 60 54 52 52 48 47 48 46 42 37 34 36 40 46 51 57 68 83 100 116 135 159 184 197 199 205 216 221 227 231 232 232 229 225 226 224 218 214 212 210 211 213 218 224 227 228
113 112 261 133 109 69 20 21 52 62 67 55 38 26 28 45 54 67 57 25 50 67 76 107 105 83 41 359 3 10 1 31 59 60 63 62 64 71 68 63 59 55 53 52 49 51 52 51 48 43 38 36 38 42 46 47 48 49 59 77 96 133 184 197 197 203 211 215 223 229 227 226 221 216 216 216 214 214 212 210 211 214 220 226 228 228
101 163 201 143 102 17 347 10 61 70 75 65 38 21 25 41 48 58 60 43 68 84 89 95 92 79 44 25 36 36 40 67 70 63 60 58 61 69 69 63 59 57 54 52 51 51 51 49 48 45 42 38 36 41 47 48 49 47 45 47 60 86 117 162 211 217 218 219 223 226 223 219 214 211 212 212 211 214 213 212 213 214 217 219 217 214
74 129 155 105 129 240 332 0 46 63 67 53 15 13 8 13 37 54 53 8 4 119 130 114 95 89 74 62 65 63 63 65 63 59 60 59 57 65 69 65 62 60 56 55 54 51 49 47 45 43 41 37 34 37 42 46 51 51 47 45 43 54 94 90 249 240 238 232 227 230 233 230 225 224 225 223 221 220 217 215 213 211 211 213 215 216
95 138 146 141 159 178 20 58 73 66 62 319 314 48 14 44 112 105 62 25 349 298 152 127 114 114 115 104 83 71 64 61 57 52 55 59 60 65 67 66 65 62 58 57 56 55 54 51 46 42 39 35 32 34 39 44 50 52 53 56 58 59 65 64 41 330 287 256 241 245 254 254 253 250 244 234 224 218 214 212 213 214 215 216 218 217
103 131 136 143 152 136 91 103 110 125 173 267 345 303 262 3 99 102 67 27 9 32 82 86 104 113 114 105 93 84 73 65 62 55 47 48 59 67 67 64 62 60 57 55 52 51 52 52 51 48 41 35 32 36 42 46 47 50 54 59 63 67 70 69 65 60 53 43 17 279 249 235 246 250 242 225 210 207 210 213 216 216 212 207 200 193
101 98 100 87 98 114 118 125 138 172 213 339 355 351 179 121 106 99 79 44 34 68 96 100 104 110 109 101 95 94 90 81 72 60 47 40 42 56 64 59 53 51 49 47 43 39 37 39 44 46 44 39 34 33 36 36 36 39 43 48 52 58 65 68 67 64 59 56 53 50 53 62 13 206 179 192 193 197 206 211 209 199 189 182 177 170
113 107 105 76 73 124 152 159 166 196 341 4 28 52 82 109 118 99 74 47 24 25 89 108 112 116 114 110 103 100 100 93 77 59 46 39 33 41 53 53 47 43 37 36 35 32 30 31 33 41 48 48 43 37 32 27 26 29 31 38 44 47 51 56 59 57 53 53 54 50 45 44 33 240 222 219 206 198 196 190 179 170 164 158 154 152
109 116 108 73 43 138 144 151 175 343 299 166 142 114 76 95 317 39 78 62 26 357 58 113 123 127 126 125 122 117 124 99 81 59 39 35 30 32 43 45 46 44 35 32 33 33 35 35 34 39 45 48 47 43 34 28 26 27 27 31 40 43 39 39 44 46 42 42 49 50 46 53 85 122 162 187 189 187 178 168 162 159 156 152 150 150
67 92 129 121 54 69 101 115 147 241 226 169 126 92 10 344 287 262 144 96 61 13 15 114 126 130 146 160 162 196 251 85 83 63 31 28 24 24 34 35 36 39 36 31 29 27 28 30 31 33 36 39 40 37 33 30 25 22 22 21 21 24 24 23 25 24 20 25 41 51 52 62 96 128 143 148 159 170 166 162 161 160 161 161 158 155
54 53 103 125 122 122 129 154 191 199 219 69 75 357 334 324 231 218 178 128 93 30 7 117 116 105 128 172 169 191 221 134 105 85 29 22 21 23 28 28 27 29 27 25 22 17 16 18 20 22 24 26 26 24 23 25 22 19 20 16 11 11 14 13 4 348 338 338 335 335 3 40 86 130 159 174 187 193 185 178 172 170 171 171 166 161
45 33 56 127 140 157 158 165 223 212 54 11 330 319 334 27 170 195 195 159 122 49 21 93 88 63 42 34 77 90 59 85 104 87 29 17 28 32 31 28 24 22 20 18 17 14 12 12 11 10 8 10 12 10 7 8 12 15 16 15 16 18 15 10 4 351 335 322 308 295 294 298 294 242 198 200 205 204 198 195 190 185 181 179 175 171
43 24 31 120 119 130 157 145 88 240 178 300 302 316 326 202 189 201 194 130 108 100 80 74 70 55 41 42 56 66 57 54 74 69 35 24 30 29 26 23 20 21 19 13 12 12 9 7 6 2 358 357 359 359 356 356 358 1 0 4 16 21 12 2 357 353 347 339 325 308 297 292 281 265 254 250 239 220 208 202 198 193 187 182 179 180
38 36 39 77 80 78 126 115 103 150 82 342 311 310 301 220 191 150 108 101 106 104 90 72 67 59 51 54 58 63 64 59 54 45 32 28 24 16 14 13 11 13 13 9 10 9 4 360 359 356 352 348 347 346 347 346 347 345 344 348 356 356 352 347 343 342 344 344 341 333 321 309 295 277 261 254 254 249 229 208 199 194 190 185 183 187
15 25 72 72 68 119 117 99 163 161 44 349 311 288 333 2 129 117 112 115 110 100 95 87 77 66 63 67 63 57 61 57 40 24 18 20 19 8 5 7 5 3 3 2 4 4 359 353 351 349 347 343 340 337 338 338 338 335 335 338 337 333 332 332 332 333 334 335 336 338 336 331 322 305 282 266 258 251 235 215 204 198 194 193 194 196
10 359 114 104 356 298 120 104 111 25 358 342 325 100 74 73 106 125 118 112 110 100 93 87 77 69 68 72 68 64 63 47 24 13 5 4 6 360 357 1 359 356 356 354 353 356 354 348 342 340 339 337 336 334 331 333 333 328 326 328 325 322 321 320 320 322 324 325 325 327 329 330 330 328 318 296 274 256 244 238 233 222 215 215 215 212
31 19 43 68 55 34 60 90 103 5 354 10 52 85 86 83 83 84 89 96 100 100 88 77 80 82 70 60 56 55 49 30 14 11 3 354 352 351 350 351 349 347 346 344 344 346 345 339 334 331 328 328 329 326 322 324 325 320 316 313 310 310 311 312 314 316 315 316 316 316 317 318 317 319 323 323 313 289 267 259 252 243 238 235 231 228
63 35 358 73 103 85 64 73 85 62 44 43 49 62 71 69 60 61 83 91 81 85 88 74 80 87 70 56 53 38 29 23 7 359 357 346 336 335 336 335 336 340 337 334 336 337 334 329 326 324 321 321 322 321 317 315 316 313 307 303 303 304 304 304 307 308 307 309 309 307 307 309 308 307 309 312 318 319 308 289 272 258 249 241 232 226
65 98 81 101 126 115 98 120 135 94 91 74 57 72 80 70 59 50 75 91 83 76 75 68 77 84 65 58 58 32 18 26 2 343 340 334 326 326 329 329 330 332 328 325 327 328 325 322 318 316 315 313 313 315 313 309 308 306 302 300 301 304 305 305 305 303 302 302 302 302 302 302 301 301 300 301 303 306 309 308 301 284 264 247 233 222
33 89 110 106 90 62 106 132 130 82 99 110 79 112 126 106 93 78 78 94 93 78 68 58 55 56 42 43 46 14 357 8 359 340 332 324 319 319 321 322 323 322 320 320 323 323 321 317 313 310 308 304 302 303 303 301 300 299 298 298 298 299 302 303 303 302 300 299 298 297 296 296 295 295 294 294 294 295 296 299 300 297 284 265 248 236
322 271 121 109 103 91 96 130 147 140 158 181 167 145 151 117 104 93 83 87 88 80 72 59 51 49 41 33 23 357 345 349 352 345 333 324 323 324 323 323 321 321 321 320 319 318 315 311 308 307 304 299 296 294 291 291 292 292 292 292 293 295 298 299 299 299 298 296 294 291 290 289 287 284 284 285 287 287 285 284 286 288 285 276 263 251
241 141 127 123 127 131 161 172 168 153 149 184 186 165 149 141 123 114 106 100 102 109 106 85 72 74 58 39 20 359 348 343 343 341 333 326 328 328 326 326 324 321 321 319 316 314 312 309 307 306 304 301 297 291 287 287 289 289 288 286 287 290 292 293 294 293 290 288 285 283 283 283 280 276 274 274 276 278 278 276 274 274 276 276 270 261
132 140 145 140 132 139 185 170 165 122 48 146 164 146 143 155 141 131 128 121 121 133 137 96 54 1 19 30 21 1 345 332 331 333 328 323 323 323 321 322 320 319 318 317 316 315 314 313 311 309 307 306 301 293 288 287 287 288 287 285 284 285 286 285 283 282 282 281 279 278 278 277 274 271 268 267 265 264 268 271 270 268 267 268 267 266
Height
762 765 768 767 765 763 762 764 766 769 770 769 772 773 773 774 767 761 760 762 762 761 761 762 759 755 759 763 762 760 763 765 765 766 767 770 773 773 773 774 774 775 776 778 780 782 783 784 785 787 789 791 792 794 795 796 798 800 801 803 805 807 810 812 814 816 817 818 820 822 823 824 824 825 825 825 826 827 828 829 829 830 830 831 831 831
763 768 768 761 760 762 764 769 770 771 773 771 772 771 773 775 766 758 761 764 764 760 760 766 763 759 764 766 762 761 764 768 766 765 768 770 772 772 772 774 774 775 776 778 780 782 783 784 785 787 788 790 792 793 794 796 798 800 802 804 806 808 810 812 813 815 816 818 819 821 822 823 823 825 825 826 827 828 829 830 831 831 831 831 832 832
767 766 761 759 765 769 771 774 771 770 773 772 773 773 770 770 765 760 761 764 765 760 759 766 763 761 768 769 765 764 765 767 765 764 766 769 772 771 771 773 773 774 777 778 780 781 782 784 785 786 787 789 791 793 795 796 798 801 803 804 806 807 809 810 812 814 815 817 819 820 821 822 823 825 826 827 828 829 830 831 831 832 832 832 832 833
769 762 758 762 767 768 771 775 772 770 773 772 772 771 766 767 766 760 759 763 766 765 762 762 760 763 768 769 769 769 767 767 767 765 765 767 770 770 771 772 772 774 776 777 779 781 782 783 784 785 787 788 790 793 795 796 799 801 802 803 804 806 807 809 811 813 815 817 819 820 821 823 823 825 826 827 828 829 830 831 832 832 833 833 833 834
761 759 764 768 766 764 768 774 773 769 770 772 772 769 764 764 763 758 760 763 763 765 764 759 760 764 766 769 771 770 769 769 769 768 767 768 768 768 769 770 772 773 775 776 778 779 781 781 783 784 786 788 790 792 794 797 799 801 802 802 803 804 806 809 811 813 815 817 819 821 822 823 824 825 826 827 828 829 830 831 832 833 833 834 834 834
757 760 765 764 765 766 766 770 771 766 766 769 767 763 760 759 759 759 761 761 760 763 766 765 766 767 766 769 771 770 770 771 771 770 769 769 768 767 769 770 771 772 773 775 776 778 780 781 782 784 786 789 791 793 795 797 800 801 802 803 806 808 809 810 811 813 815 817 819 820 821 822 823 824 825 826 828 829 830 832 833 833 834 834 835 835
757 761 762 760 763 766 766 768 767 765 766 765 758 755 758 759 760 762 759 759 762 765 771 771 768 768 766 767 771 772 770 770 772 770 768 768 768 767 768 769 770 771 773 774 775 776 778 780 781 783 787 790 792 794 795 797 799 800 800 802 808 812 812 811 812 812 815 818 819 819 819 820 821 822 824 826 828 829 831 832 833 834 834 835 835 835
756 761 764 761 763 767 768 764 761 762 761 758 755 756 760 760 760 761 757 758 764 766 770 770 765 765 767 767 773 775 770 769 771 770 769 768 767 767 766 767 768 769 771 773 773 775 777 779 782 784 787 789 790 792 794 796 796 796 797 799 803 806 809 812 813 814 816 817 818 818 818 819 820 822 824 826 828 829 831 832 833 835 835 835 835 835
755 756 758 758 762 764 759 753 755 758 754 755 760 761 761 761 760 760 757 760 769 769 765 765 765 767 768 764 767 770 767 767 768 767 768 767 766 766 765 764 765 766 768 770 771 773 775 779 783 785 786 788 790 791 792 792 792 793 795 797 798 799 803 809 813 815 817 817 818 818 818 819 821 822 824 826 828 829 831 833 834 835 836 836 836 836
753 752 751 753 755 753 750 751 756 753 751 758 763 762 762 765 765 764 761 761 769 771 766 769 772 771 769 763 760 762 762 764 766 765 765 766 765 764 763 763 763 765 767 768 769 772 775 780 783 784 786 788 789 789 789 789 791 793 795 797 798 798 802 808 812 815 817 818 818 818 817 819 820 822 824 826 828 830 831 833 834 835 836 836 836 836
751 751 751 750 748 747 750 759 761 756 757 760 758 756 758 762 762 764 766 764 769 775 772 779 782 775 771 768 763 764 765 767 769 766 765 767 766 764 763 763 763 764 766 767 769 773 777 780 782 785 788 789 789 788 789 789 791 792 793 794 797 798 802 807 811 814 816 818 818 818 818 818 820 821 823 826 828 830 831 833 834 835 836 837 837 837
752 752 750 745 744 747 750 757 762 760 761 759 753 753 759 764 764 766 770 769 775 780 778 785 789 778 772 769 764 765 767 770 772 769 767 768 767 765 763 762 763 764 766 767 769 773 777 780 784 788 791 792 791 790 790 790 790 790 791 794 797 799 802 807 810 813 815 818 818 818 818 818 819 821 823 825 827 829 831 833 835 836 837 837 838 838
751 747 746 744 743 743 745 753 761 761 759 757 753 757 766 773 778 778 779 779 780 779 781 788 787 778 772 768 766 768 767 769 771 770 769 768 767 765 763 762 763 763 765 766 768 772 776 780 784 787 788 789 790 790 791 791 791 793 797 800 801 801 804 807 809 812 815 817 818 818 818 818 820 821 823 825 827 829 831 833 835 836 837 838 838 839
751 747 745 743 742 739 739 747 757 759 757 755 754 759 767 778 790 794 794 795 788 778 782 788 783 778 776 770 769 770 768 768 769 769 769 769 768 766 764 762 763 765 765 767 769 772 776 780 783 784 784 784 786 789 795 798 798 801 804 805 805 805 806 808 810 812 814 816 818 819 819 819 820 822 823 825 827 829 831 833 834 835 837 838 839 839
759 755 744 740 741 739 738 739 743 748 753 757 755 754 760 767 778 786 786 785 782 779 783 785 781 779 776 771 770 770 769 769 769 769 769 769 768 766 764 764 765 767 768 769 771 774 776 778 781 783 784 785 787 793 800 804 804 804 803 805 808 809 808 809 810 812 814 816 818 819 819 820 821 822 823 825 827 829 830 832 834 835 836 838 839 839
764 757 741 740 743 740 739 737 737 742 752 762 760 755 758 756 760 779 789 785 781 781 783 784 782 779 775 773 773 772 772 771 771 771 770 769 768 765 765 766 767 769 770 771 772 774 775 776 778 781 783 785 789 796 803 805 805 802 800 801 805 807 807 808 809 811 814 816 817 818 819 820 821 822 823 825 827 829 830 831 833 834 836 837 838 839
763 754 741 743 744 740 741 739 739 742 748 760 761 756 759 755 755 776 795 798 791 784 785 789 785 778 775 773 773 773 773 773 774 773 772 771 769 767 767 767 767 769 771 771 772 774 776 776 775 777 780 781 785 792 799 804 804 801 800 802 802 804 807 808 809 810 812 814 816 817 818 820 820 821 822 824 826 828 830 831 832 834 835 837 838 839
754 750 743 743 742 742 744 740 740 742 744 752 755 752 757 760 760 766 780 794 794 785 786 792 789 782 776 772 770 771 773 774 775 774 774 774 771 770 771 770 770 771 771 772 773 774 776 777 774 775 778 777 779 786 795 801 804 802 803 803 803 804 806 806 807 809 811 812 814 816 817 819 821 820 821 823 825 827 829 830 831 832 834 836 837 838
750 750 747 746 745 743 742 740 743 746 744 745 744 745 753 760 763 768 777 785 787 790 792 793 795 788 774 769 769 769 770 772 775 776 775 776 776 775 775 774 775 775 775 775 776 776 776 777 776 777 780 779 779 787 795 801 805 804 803 801 802 804 804 804 806 807 809 811 813 815 817 819 821 821 821 823 825 826 828 829 830 831 833 835 836 838
749 752 750 747 746 745 742 742 746 748 747 746 745 749 754 757 761 766 772 771 773 790 796 791 792 782 769 772 773 768 770 771 773 777 778 779 779 779 779 779 778 778 778 777 776 777 777 777 777 779 783 783 782 789 797 802 805 804 799 798 801 804 804 804 805 806 808 810 812 815 817 818 820 821 822 823 824 825 827 829 829 830 832 834 836 837
747 752 753 748 746 747 746 747 749 748 748 749 750 754 758 763 766 766 772 774 771 781 790 790 788 776 771 781 781 774 774 774 774 777 780 781 781 781 782 782 781 780 779 778 777 778 780 780 781 782 785 784 784 790 797 801 804 802 798 798 802 805 805 805 806 807 809 810 812 814 816 818 819 821 822 823 824 825 826 828 829 830 832 834 835 836
746 750 752 750 749 749 750 753 754 752 751 750 748 751 755 760 763 763 774 783 777 775 783 784 779 772 777 787 787 782 780 778 777 776 779 782 782 782 783 782 783 782 781 781 780 781 784 784 784 783 784 784 786 792 798 800 802 801 800 801 803 806 806 805 806 808 809 811 812 814 815 817 818 820 821 823 824 825 826 827 829 830 832 833 834 835
745 746 750 755 755 754 754 755 757 757 755 752 751 755 757 754 753 756 765 775 780 783 784 779 773 773 783 789 787 786 783 780 779 776 778 783 782 782 784 783 784 784 783 784 783 783 785 784 784 784 785 787 790 794 798 800 801 801 802 802 803 804 805 805 806 808 809 811 812 813 814 816 817 818 820 821 823 824 825 826 828 829 831 832 833 834
745 749 754 760 758 753 750 752 755 756 754 753 756 765 765 757 754 756 759 763 773 781 779 774 774 776 783 788 787 785 782 780 779 777 778 782 782 783 784 784 785 785 785 785 784 784 785 784 785 786 787 789 791 794 797 799 801 801 802 802 802 803 804 804 805 807 809 810 811 813 814 814 816 817 819 820 821 823 824 826 827 828 830 831 832 834
746 755 757 762 766 763 758 756 755 752 753 757 764 770 770 766 762 761 763 763 766 776 775 767 769 777 783 788 787 785 783 781 781 780 780 781 783 784 785 786 787 787 786 786 785 786 787 787 789 789 791 792 793 794 796 798 800 801 801 802 801 802 803 804 804 806 808 810 810 812 813 813 815 816 818 819 821 822 824 825 826 827 829 830 831 833
753 765 761 758 765 769 767 765 762 757 758 762 767 770 771 771 762 756 761 761 762 776 778 764 765 778 784 787 787 789 788 785 785 784 783 784 786 786 788 789 789 789 789 789 788 789 790 791 792 793 794 795 795 796 797 798 799 800 800 801 800 801 802 803 804 805 806 808 809 810 812 813 814 816 817 819 820 821 822 824 825 826 828 829 830 832
759 773 770 760 761 767 771 773 772 767 764 764 767 768 771 776 770 758 757 759 762 773 775 768 772 780 786 791 793 794 793 791 790 788 787 788 789 789 790 791 791 792 792 792 792 792 793 794 794 795 796 797 798 798 798 798 799 800 800 800 800 801 802 803 804 804 805 807 808 809 811 812 813 815 816 818 819 819 821 823 824 825 826 828 829 830
759 771 773 771 772 775 777 777 774 771 772 775 774 771 772 777 773 760 757 763 767 765 767 775 780 781 789 799 799 799 799 796 795 794 792 793 793 792 793 793 793 794 794 794 795 795 796 797 797 798 799 799 799 799 798 799 800 800 801 800 800 801 802 803 804 805 805 806 807 809 810 811 812 814 815 816 817 818 819 821 823 824 825 826 827 828
761 770 773 774 778 781 780 777 771 771 778 783 783 782 779 776 773 770 775 782 776 763 766 780 786 788 797 804 802 802 803 800 800 800 798 797 796 794 794 794 795 796 796 797 798 799 800 800 800 801 801 802 802 801 801 800 800 801 802 801 802 802 803 804 805 806 806 807 808 809 809 810 812 813 814 815 816 817 818 820 821 823 824 825 826 827
760 771 774 773 777 781 783 781 775 773 777 781 785 789 786 782 783 785 791 796 787 780 784 788 791 799 807 807 805 805 805 803 802 801 799 798 798 797 796 797 798 800 800 801 802 803 803 803 803 803 803 803 804 803 803 802 802 802 802 802 803 804 805 805 806 806 807 807 808 809 809 811 811 812 813 814 815 816 817 819 820 822 823 823 825 826
755 770 773 771 776 781 781 782 779 775 779 781 784 787 784 781 783 787 794 796 789 791 797 793 792 805 811 809 808 807 804 803 802 801 802 803 801 800 800 802 804 804 805 805 806 806 805 805 806 805 805 805 805 805 805 804 804 803 803 803 804 804 805 806 807 808 808 809 809 809 810 811 812 813 813 814 815 816 817 818 819 821 822 823 824 825
754 769 775 772 776 781 782 784 781 779 782 784 783 786 785 783 785 792 801 803 796 793 794 787 790 805 812 811 810 808 805 805 805 806 807 806 805 804 804 806 808 808 809 809 808 808 808 808 808 808 809 808 808 808 807 807 806 806 806 805 805 806 806 807 808 809 809 810 810 810 811 811 812 813 813 814 815 816 816 818 819 820 821 822 823 824
758 765 771 771 773 782 789 788 783 781 782 782 787 797 801 799 799 801 805 811 810 803 792 786 793 808 813 811 811 810 809 810 810 811 810 809 808 807 808 810 811 811 812 811 811 811 810 811 811 811 811 811 811 811 811 810 809 809 809 808 808 808 808 808 809 810 810 810 810 811 811 811 812 812 813 814 814 815 816 817 819 820 821 822 823 824
762 762 767 769 771 785 794 789 786 787 785 788 799 808 807 803 802 803 808 814 815 809 801 799 806 813 814 813 813 814 815 815 816 815 814 812 811 810 811 813 813 813 814 813 813 813 813 813 813 813 813 813 814 814 813 813 812 812 812 811 810 810 810 810 811 811 811 811 811 811 811 811 812 812 812 813 814 815 817 818 819 819 820 821 822 822
762 764 772 775 776 788 795 788 787 791 792 798 807 809 805 804 804 806 812 815 813 810 808 808 812 815 815 817 817 817 818 818 818 817 817 816 815 814 814 815 815 816 816 815 816 816 816 816 815 815 815 815 815 815 815 814 814 814 813 813 812 812 812 812 812 812 812 812 812 812 811 811 812 812 812 813 814 815 817 818 818 819 820 821 822 822
758 763 774 781 784 790 790 784 787 796 803 808 808 806 806 807 804 803 808 814 816 814 812 811 815 818 818 819 819 818 819 818 817 819 820 820 820 819 818 818 819 820 820 820 819 819 819 818 818 818 817 817 817 817 816 816 815 815 814 814 813 813 813 813 813 813 813 813 813 813 812 812 812 812 813 813 814 815 816 817 818 819 819 821 822 823
760 762 770 779 790 792 787 790 800 805 806 806 806 808 809 809 807 805 808 816 821 819 816 815 817 819 819 819 820 820 818 815 815 820 822 822 822 822 821 822 822 823 824 823 823 822 822 821 820 820 819 819 819 819 818 817 816 815 815 814 814 813 814 814 814 814 814 814 814 814 813 813 812 812 813 814 814 815 816 817 818 819 820 821 822 823
765 765 765 774 794 800 792 795 804 799 793 798 805 810 811 812 814 811 808 813 821 822 820 819 817 819 820 818 819 821 818 814 816 822 824 824 825 824 823 824 824 825 825 824 824 824 823 823 822 822 821 821 820 820 819 818 817 816 816 815 815 814 814 814 814 815 815 815 815 815 815 814 814 813 813 814 815 816 817 818 818 819 820 821 822 823
768 772 769 772 791 800 789 787 794 791 794 805 811 811 810 812 816 812 803 807 820 824 822 820 819 820 820 818 819 819 814 812 817 824 826 827 827 827 826 826 825 825 825 825 825 824 823 823 822 822 822 821 821 820 820 819 819 818 817 816 816 816 815 815 815 815 815 815 815 816 816 815 815 814 814 814 815 816 817 818 819 820 821 822 822 823
774 779 776 774 787 795 788 788 797 802 807 814 813 809 810 814 814 805 795 803 820 825 822 821 822 821 822 821 819 817 814 814 820 826 829 829 829 829 829 828 828 827 826 826 825 824 823 823 822 821 821 821 821 821 820 819 819 819 818 818 818 817 817 816 816 815 815 815 815 815 815 815 815 815 814 814 814 815 815 817 818 819 820 821 822 823
787 791 791 788 792 797 793 794 804 810 813 815 812 811 813 812 807 799 798 810 823 825 823 824 824 823 823 821 818 820 823 824 826 829 830 830 830 830 830 830 829 829 828 827 826 826 825 824 823 823 822 821 821 821 820 820 819 819 819 819 819 818 818 817 817 816 815 815 815 814 814 814 814 814 814 814 814 814 814 815 816 817 818 818 820 821
795 798 799 799 803 806 803 799 801 807 813 816 814 812 811 807 802 803 814 823 824 823 825 826 825 825 825 823 823 825 827 828 829 830 831 831 831 831 831 831 830 830 829 828 827 826 825 824 824 823 823 822 822 821 821 821 820 820 819 819 819 819 818 818 817 816 816 815 815 814 813 813 813 813 813 813 813 813 814 814 814 814 815 816 817 819
799 800 802 807 811 810 807 802 799 803 813 818 814 811 810 808 808 815 823 825 823 824 826 825 826 827 827 827 828 828 828 830 831 831 831 832 832 832 832 832 831 830 830 829 828 827 826 825 824 823 823 822 821 821 820 820 819 819 819 818 818 817 817 817 816 816 815 815 814 814 813 812 812 811 811 811 812 812 813 813 812 812 813 813 815 816
802 802 801 808 812 805 801 805 809 812 817 818 813 811 813 815 817 820 821 822 825 826 825 825 828 829 828 828 830 830 830 831 831 832 832 832 832 832 832 832 831 830 830 829 828 827 826 825 824 823 822 822 821 820 819 819 818 818 818 817 817 816 816 815 815 815 814 814 813 813 812 812 811 811 810 810 810 810 811 811 811 812 812 812 813 814
807 807 804 809 816 812 808 813 820 821 821 819 815 816 818 819 821 821 821 824 827 827 827 828 829 829 830 830 830 830 831 832 833 833 833 833 833 833 832 831 831 831 830 829 828 828 827 826 825 823 822 821 821 820 819 818 818 817 817 816 816 815 815 814 814 814 813 813 812 812 811 811 811 810 810 809 809 809 809 809 810 810 810 810 810 811
811 812 809 810 817 819 817 820 823 822 822 821 820 821 822 822 823 824 824 825 827 827 829 829 829 831 831 831 831 832 833 833 834 833 833 834 834 833 832 832 832 831 830 830 829 828 827 826 825 824 822 821 820 820 819 818 817 817 816 815 815 814 814 813 813 812 812 811 811 810 810 810 810 809 809 809 808 808 808 808 808 808 808 808 808 808
811 812 812 813 816 818 819 822 824 823 823 824 823 823 824 824 825 825 825 826 828 828 829 830 830 831 831 831 833 833 833 834 835 834 834 834 833 833 832 831 831 830 830 829 829 828 826 825 824 823 822 821 820 819 818 817 817 816 815 814 814 813 812 812 811 811 810 810 809 809 808 808 808 808 808 807 807 807 807 807 806 806 806 806 806 807
810 810 812 816 818 819 819 822 824 824 824 825 824 824 824 824 826 826 826 827 828 829 830 830 831 831 831 832 833 834 834 835 835 835 835 834 833 833 832 830 830 830 829 828 827 826 825 824 823 822 821 819 818 818 817 816 815 814 814 813 813 812 811 810 810 809 808 808 807 807 807 806 806 806 806 805 805 805 805 806 805 805 805 805 805 806
812 811 814 817 819 821 822 823 824 824 824 824 825 825 825 825 826 827 828 829 829 830 831 832 832 832 833 833 833 833 833 833 833 834 834 832 832 831 830 830 829 828 827 827 826 825 824 823 822 821 820 818 817 816 815 814 813 812 812 811 810 810 809 808 807 807 806 806 805 804 804 804 803 803 803 803 803 803 803 803 804 804 803 803 804 804
812 812 816 818 818 820 819 819 820 821 820 821 823 824 826 827 827 828 829 830 831 831 832 833 833 834 834 834 834 834 834 833 833 833 832 831 831 830 829 829 827 826 826 825 824 823 823 822 821 820 819 817 816 814 813 812 811 810 809 808 808 807 806 805 805 804 803 803 802 802 801 801 800 800 800 800 800 800 800 800 801 801 801 801 801 802
811 812 814 813 814 815 814 815 818 819 818 820 822 824 826 828 828 829 830 831 832 833 833 833 834 834 834 835 835 835 835 834 833 833 832 831 830 829 829 828 826 825 824 823 822 821 821 820 819 818 817 815 814 813 812 811 809 808 807 806 805 804 803 802 802 800 799 799 799 798 798 798 797 797 797 797 797 797 797 797 798 798 798 799 799 800